This is the latest recevied weather packets stored in our database for station/object DO7ZT-13. If no packets are shown the sender has not sent any weather packets the latest 10 day(s).
| Time | Temp. | Humidity | Pressure | Rain* | Wind** | Luminosity | Snow |
|---|---|---|---|---|---|---|---|
| 1778005210 | 16.11° C | 74% | 1006.4 hPa | 0 mm | 0.45 m/s, 12° | - | - |
| 1778004922 | 16.11° C | 74% | 1006.5 hPa | 0 mm | 0.89 m/s, 354° | - | - |
| 1778004610 | 17.22° C | 73% | 1006.5 hPa | 0 mm | 0.89 m/s, 342° | - | - |
| 1778004335 | 17.22° C | 73% | 1006.5 hPa | 0 mm | 0.89 m/s, 342° | - | - |
| 1778004022 | 17.22° C | 73% | 1006.6 hPa | 0 mm | 0.89 m/s, 342° | - | - |
| 1778003709 | 17.22° C | 72% | 1006.6 hPa | 0 mm | 0.45 m/s, 354° | - | - |
| 1778003422 | 17.22° C | 72% | 1006.6 hPa | 0 mm | 0.89 m/s, 330° | - | - |
| 1778003109 | 17.22° C | 71% | 1006.7 hPa | 0 mm | 0.89 m/s, 313° | - | - |
| 1778002821 | 17.22° C | 71% | 1006.7 hPa | 0 mm | 0.89 m/s, 336° | - | - |
| 1778002509 | 17.22° C | 71% | 1006.7 hPa | 0 mm | 0.89 m/s, 12° | - | - |
| 1778002222 | 17.22° C | 70% | 1006.7 hPa | 0 mm | 1.34 m/s, 330° | - | - |
| 1778001909 | 17.22° C | 70% | 1006.7 hPa | 0 mm | 1.79 m/s, 342° | - | - |
| 1778001621 | 17.78° C | 70% | 1006.7 hPa | 0 mm | 0.89 m/s, 0° | - | - |
| 1778001308 | 17.78° C | 69% | 1006.6 hPa | 0 mm | 1.34 m/s, 318° | - | - |
| 1778001021 | 17.78° C | 69% | 1006.6 hPa | 0 mm | 1.34 m/s, 0° | - | - |
| 1778000709 | 17.78° C | 69% | 1006.6 hPa | 0 mm | 0.89 m/s, 290° | - | - |
| 1778000421 | 17.78° C | 68% | 1006.5 hPa | 0 mm | 1.79 m/s, 324° | - | - |
| 1778000108 | 17.78° C | 68% | 1006.5 hPa | 0 mm | 1.34 m/s, 330° | - | - |
| 1777999821 | 18.89° C | 67% | 1006.5 hPa | 0 mm | 0.89 m/s, 354° | - | - |
| 1777999508 | 18.89° C | 66% | 1006.7 hPa | 0 mm | 1.34 m/s, 336° | - | - |
| 1777999221 | 18.89° C | 67% | 1006.7 hPa | 0 mm | 0.89 m/s, 354° | - | - |
| 1777998909 | 18.89° C | 66% | 1006.7 hPa | 0 mm | 0.89 m/s, 347° | - | - |
| 1777998621 | 18.89° C | 66% | 1006.5 hPa | 0 mm | 0.45 m/s, 342° | - | - |
| 1777998308 | 18.89° C | 66% | 1006.5 hPa | 0 mm | 0.45 m/s, 354° | - | - |
| 1777998022 | 18.89° C | 65% | 1006.5 hPa | 0 mm | 1.79 m/s, 0° | - | - |
* Rain latest hour (hover to see other rain measurements)
** Current wind speed in m/s (hover to see current wind gust speed)